Location: Montr�al
(45.5000°N, 73.5830°W)
Time: 09:52:20
(UTC-04:00)

Cosmos 1151 Rocket - Visible Passes

Search period start: 01 August 2015 00:00
Search period end: 11 August 2015 00:00
Orbit: 592 x 618 km, 82.5° (Epoch: 31 July)

Date Brightness Start Highest point End Pass type
(mag) Time Alt. Az. Time Alt. Az. Time Alt. Az.
02 Aug 5.9 03:41:12 10° ESE 03:42:53 12° E 03:44:46 10° ENE visible
03 Aug 5.4 03:52:39 10° SE 03:55:43 20° E 03:58:53 10° NE visible
04 Aug 4.6 04:04:49 10° SSE 04:08:35 32° E 04:12:25 10° NNE visible
05 Aug 3.7 04:17:22 10° S 04:21:30 54° E 04:25:41 10° NNE visible
06 Aug 3.0 04:30:13 10° S 04:34:29 89° W 04:38:46 10° N visible
07 Aug 5.7 03:08:09 10° ESE 03:10:20 14° E 03:12:42 10° NE visible
07 Aug 3.2 04:43:22 10° SSW 04:47:31 53° WNW 04:51:42 10° N visible
08 Aug 5.1 03:19:52 10° SE 03:23:10 23° E 03:26:35 10° NE visible
08 Aug 3.9 04:56:47 10° SW 05:00:38 32° WNW 05:04:29 10° N visible
09 Aug 4.3 03:33:14 17° SSE 03:36:03 37° E 03:40:01 10° NNE visible
09 Aug 4.5 05:10:35 10° WSW 05:13:50 21° WNW 05:17:02 10° NNW visible
10 Aug 3.3 03:46:34 24° S 03:48:59 63° E 03:53:13 10° NNE visible
